Other Public Products
Issued by NWS Charleston, SC

Current Version | Previous Version | Graphics & Text | Print | Product List | Glossary On
Versions: 1 2 3 4 5 6 7 8 9 10 11 12 13 14 15 16 17 18 19 20 21 22 23 24 25 26 27 28 29 30 31 32 33 34 35 36 37 38 39 40 41 42 43 44 45 46 47 48 49 50
000
FPUS82 KCHS 281812
OPUCHS

TEST...KCHS/KSAV Gateway Observations...TEST
National Weather Service Charleston SC
200 PM EDT TUE MAR 28 2017

NOTE: "fair" indicates few or no clouds below 12,000 feet with no
significant weather and/or obstructions to visibility.

SCZ050-WAZ558-NCZ071-TXZ119-213-PAZ071-DCZ001-FLZ074-172-MI076-
NYZ176-178-MAZ016-IL014-TNZ027-NJZ106-GAZ044-MD014-281900-

...Gateway Observations for Charleston International...

CITY           SKY/WX    TMP DP  RH WIND       PRES   REMARKS
Chas Airport   MOSUNNY   85  53  33 VRB6G20   29.94F
6HR MIN TEMP:  66; 6HR MAX TEMP:  85;

Seattle        CLOUDY    48  44  86 S9        30.22R
6HR MIN TEMP:  45; 6HR MAX TEMP:  48; 6HR PCP:  0.04;

Charlotte      PTSUNNY   79  53  40 W10G18    29.92F
6HR MIN TEMP:  59; 6HR MAX TEMP:  79; 6HR PCP: TRACE;

Dallas DFW     CLOUDY    75  65  70 SE15      29.82F
6HR MIN TEMP:  63; 6HR MAX TEMP:  75; 6HR PCP: TRACE;

Dallas Love    CLOUDY    76  64  66 SE22      29.83F
6HR MIN TEMP:  64; 6HR MAX TEMP:  76;

Philladelphia  CLOUDY    53  51  93 NE12      29.84F
6HR MIN TEMP:  50; 6HR MAX TEMP:  53; 6HR PCP:  0.44;

Wash National  CLOUDY    70  59  68 NW12      29.85F
6HR MIN TEMP:  62; 6HR MAX TEMP:  71; 6HR PCP:  0.02;

Baltimore      CLOUDY    65  59  81 NW14      29.83S
6HR MIN TEMP:  55; 6HR MAX TEMP:  68; 6HR PCP:  0.28;

Miami          PTSUNNY   82  63  51 E6        30.03F
6HR MIN TEMP:  67; 6HR MAX TEMP:  82;

Detroit        CLOUDY    48  38  68 N9        30.07R
6HR MIN TEMP:  43; 6HR MAX TEMP:  49;

Newark         RAIN      45  45 100 N5        29.94R FOG
6HR MIN TEMP:  45; 6HR MAX TEMP:  46; 6HR PCP:  0.22;

Laguardia      LGT RAIN  43  40  89 NE10      29.94R FOG
6HR MIN TEMP:  42; 6HR MAX TEMP:  44; 6HR PCP:  0.12;

J F K          RAIN      47  46  97 NE3       29.95R
6HR MIN TEMP:  45; 6HR MAX TEMP:  47; 6HR PCP:  0.60;

Boston Logan   CLOUDY    40  38  93 E9        30.01S WCI  34
6HR MIN TEMP:  36; 6HR MAX TEMP:  40;

Ft. Lauderdale MOSUNNY   82  65  56 SE8       30.02F
6HR MIN TEMP:  67; 6HR MAX TEMP:  83;

Chicago O`Hare PTSUNNY   48  37  65 N13       30.12S
6HR MIN TEMP:  41; 6HR MAX TEMP:  48;

Chicago Midway CLOUDY    45  37  73 N13G20    30.13S
6HR MIN TEMP:  40; 6HR MAX TEMP:  46;

Houston Bush   MOSUNNY   82  69  64 SE18G28   29.88F
6HR MIN TEMP:  68; 6HR MAX TEMP:  82;

Houston Hobby  MOSUNNY   82  67  60 SE15G25   29.88F
6HR MIN TEMP:  72; 6HR MAX TEMP:  82;

Nashville      PTSUNNY   69  51  52 CALM      30.03S
6HR MIN TEMP:  56; 6HR MAX TEMP:  71;

Atlanta        MOSUNNY   78  62  57 W10G18    29.99F
6HR MIN TEMP:  62; 6HR MAX TEMP:  78; 6HR PCP:  0.01;


$$

GAZ044-118-TXZ119-213-NCZ071-DCZ001-MDZ014-506-PAZ021-071-NJZ106-
NYZ176-178-MAZ106-OHZ011-021-055-MIZ076-KYZ091-ILZ014-INZ047-
MNZ060-ONZ431-281900-

...Gateway Observations for Savannah International...

CITY           SKY/WX    TMP DP  RH WIND       PRES   REMARKS
Savannah Arpt  MOSUNNY   85  54  34 W13       29.97F
6HR MIN TEMP:  65; 6HR MAX TEMP:  85;

Atlanta        MOSUNNY   78  62  57 W10G18    29.99F
6HR MIN TEMP:  62; 6HR MAX TEMP:  78; 6HR PCP:  0.01;

Charlotte      PTSUNNY   79  53  40 W10G18    29.92F
6HR MIN TEMP:  59; 6HR MAX TEMP:  79; 6HR PCP: TRACE;

Dallas DFW     CLOUDY    75  65  70 SE15      29.82F
6HR MIN TEMP:  63; 6HR MAX TEMP:  75; 6HR PCP: TRACE;

Houston Bush   MOSUNNY   82  69  64 SE18G28   29.88F
6HR MIN TEMP:  68; 6HR MAX TEMP:  82;

Wash National  CLOUDY    70  59  68 NW12      29.85F
6HR MIN TEMP:  62; 6HR MAX TEMP:  71; 6HR PCP:  0.02;

Wash Dulles    CLOUDY    66  55  67 N12       29.85F
6HR MIN TEMP:  56; 6HR MAX TEMP:  67; 6HR PCP:  0.43;

Baltimore      CLOUDY    65  59  81 NW14      29.83S
6HR MIN TEMP:  55; 6HR MAX TEMP:  68; 6HR PCP:  0.28;

Philadelphia   CLOUDY    53  51  93 NE12      29.84F
6HR MIN TEMP:  50; 6HR MAX TEMP:  53; 6HR PCP:  0.44;

Newark         RAIN      45  45 100 N5        29.94R FOG
6HR MIN TEMP:  45; 6HR MAX TEMP:  46; 6HR PCP:  0.22;

Laguardia      LGT RAIN  43  40  89 NE10      29.94R FOG
6HR MIN TEMP:  42; 6HR MAX TEMP:  44; 6HR PCP:  0.12;

J F K          RAIN      47  46  97 NE3       29.95R
6HR MIN TEMP:  45; 6HR MAX TEMP:  47; 6HR PCP:  0.60;

Boston         CLOUDY    40  38  93 E9        30.01S WCI  34
6HR MIN TEMP:  36; 6HR MAX TEMP:  40;

Pittsburg      CLOUDY    56  55  97 NW10      29.90R
6HR MIN TEMP:  54; 6HR MAX TEMP:  58; 6HR PCP:  0.03;

Akron          CLOUDY    50  46  86 N10       29.97S FOG
6HR MIN TEMP:  48; 6HR MAX TEMP:  52; 6HR PCP:  0.02;

Cleveland      CLOUDY    44  38  79 N9        30.05S
6HR MIN TEMP:  42; 6HR MAX TEMP:  45; 6HR PCP: TRACE;

Cincinnati     CLOUDY    59  52  77 N15       30.00R
6HR MIN TEMP:  55; 6HR MAX TEMP:  61;

Columbus       CLOUDY    57  51  81 N13       29.98R
Detroit        CLOUDY    48  38  68 N9        30.07R
6HR MIN TEMP:  43; 6HR MAX TEMP:  49;

Chicago O`Hare PTSUNNY   48  37  65 N13       30.12S
6HR MIN TEMP:  41; 6HR MAX TEMP:  48;

Minneapolis    MOSUNNY   58  36  43 SE6       30.15F
6HR MIN TEMP:  35; 6HR MAX TEMP:  59;

Indianapolis   PTSUNNY   56  46  69 N6        30.05R
6HR MIN TEMP:  50; 6HR MAX TEMP:  58;

Toronto Canada PTSUNNY   46  39  76 N15G21    29.99R

$$




USA.gov is the U.S. government's official web portal to all federal, state and local government web resources and services.